W4RJF Weather Reports


Display with metric or nautical units.
time (UTC)temp
F
wind
direction
speed
MPH
gust
MPH
rain 1hr
in
rain 24hr
in
rain mn
in
humidity
%
barometer
mb
20260901131514 79 350 0.0 1.0 0.00 0.00 0.00 83 1019.6
20260901131007 79 180 0.0 1.0 0.00 0.00 0.00 85 1019.5
20260901130508 79 311 0.0 0.0 0.00 0.00 0.00 86 1019.5
20260901130025 79 311 0.0 2.0 0.00 0.00 0.00 87 1019.4
20260901125512 78 15 0.0 2.0 0.00 0.00 0.00 87 1019.5
20260901125005 78 13 0.0 2.0 0.00 0.00 0.00 88 1019.4
20260901124511 77 5 0.0 2.0 0.00 0.00 0.00 89 1019.4
20260901124003 77 5 0.0 1.0 0.00 0.00 0.00 90 1019.4
20260901123504 76 352 0.0 1.0 0.00 0.00 0.00 91 1019.4
20260901123006 76 195 0.0 0.0 0.00 0.00 0.00 92 1019.5
20260901122506 75 195 0.0 0.0 0.00 0.00 0.00 93 1019.5
20260901122013 75 195 0.0 0.0 0.00 0.00 0.00 93 1019.4
20260901121511 75 195 0.0 0.0 0.00 0.00 0.00 93 1019.3
20260901121010 75 195 0.0 0.0 0.00 0.00 0.00 94 1019.3
20260901120509 74 195 0.0 0.0 0.00 0.00 0.00 94 1019.2
20260901120017 74 195 0.0 0.0 0.00 0.00 0.00 94 1019.2
20260901115510 74 195 0.0 0.0 0.00 0.00 0.00 94 1019.1
20260901115010 74 195 0.0 0.0 0.00 0.00 0.00 94 1019.1
20260901114524 74 195 0.0 0.0 0.00 0.00 0.00 94 1019.3
20260901114013 74 195 0.0 0.0 0.00 0.00 0.00 94 1019.2
20260901113504 74 195 0.0 0.0 0.00 0.00 0.00 95 1019.1
20260901113006 73 195 0.0 0.0 0.00 0.00 0.00 95 1019.1
20260901112503 73 195 0.0 0.0 0.00 0.00 0.00 95 1019.0
20260901112005 73 195 0.0 0.0 0.00 0.00 0.00 95 1019.0
20260901111512 73 195 0.0 0.0 0.00 0.00 0.00 95 1018.9
20260901111007 73 195 0.0 0.0 0.00 0.00 0.00 95 1018.8
20260901110506 73 195 0.0 0.0 0.00 0.00 0.00 95 1018.8
20260901110019 73 195 0.0 0.0 0.00 0.00 0.00 95 1018.7
20260901105510 73 195 0.0 0.0 0.00 0.00 0.00 95 1018.8
20260901105011 73 195 0.0 0.0 0.00 0.00 0.00 95 1018.8
20260901104523 73 195 0.0 0.0 0.00 0.00 0.00 95 1018.8
20260901104016 73 195 0.0 0.0 0.00 0.00 0.00 95 1018.7
20260901103511 73 195 0.0 0.0 0.00 0.00 0.00 94 1018.7
20260901103028 73 195 0.0 0.0 0.00 0.00 0.00 94 1018.7
20260901102503 73 195 0.0 0.0 0.00 0.00 0.00 94 1018.6
20260901102004 73 195 0.0 0.0 0.00 0.00 0.00 94 1018.5
20260901101511 73 195 0.0 0.0 0.00 0.00 0.00 94 1018.5
20260901101010 73 195 0.0 0.0 0.00 0.00 0.00 94 1018.4
20260901100509 73 195 0.0 0.0 0.00 0.00 0.00 94 1018.4
20260901100013 73 195 0.0 0.0 0.00 0.00 0.00 94 1018.4
20260901095508 73 195 0.0 0.0 0.00 0.00 0.00 94 1018.3
20260901095008 74 195 0.0 0.0 0.00 0.00 0.00 94 1018.4
20260901094532 74 195 0.0 0.0 0.00 0.00 0.00 94 1018.4
20260901094010 74 195 0.0 0.0 0.00 0.00 0.00 94 1018.4
20260901093512 74 195 0.0 0.0 0.00 0.00 0.00 93 1018.5
20260901093026 74 195 0.0 0.0 0.00 0.00 0.00 93 1018.6
20260901092513 74 195 0.0 0.0 0.00 0.00 0.00 93 1018.6
20260901092014 74 195 0.0 0.0 0.00 0.00 0.00 93 1018.6
20260901091515 74 195 0.0 0.0 0.00 0.00 0.00 93 1018.6
20260901091003 74 195 0.0 0.0 0.00 0.00 0.00 93 1018.6
20260901090505 74 195 0.0 0.0 0.00 0.00 0.00 93 1018.6
20260901090013 74 195 0.0 0.0 0.00 0.00 0.00 93 1018.6
20260901085507 74 195 0.0 0.0 0.00 0.00 0.00 93 1018.6
20260901085010 74 195 0.0 0.0 0.00 0.00 0.00 92 1018.6
20260901084520 75 195 0.0 0.0 0.00 0.00 0.00 92 1018.6
20260901084008 75 195 0.0 0.0 0.00 0.00 0.00 92 1018.6
20260901083509 75 195 0.0 0.0 0.00 0.00 0.00 92 1018.7
20260901083026 75 195 0.0 0.0 0.00 0.00 0.00 92 1018.9
20260901082511 75 195 0.0 0.0 0.00 0.00 0.00 92 1019.0
20260901082013 75 195 0.0 0.0 0.00 0.00 0.00 91 1019.1
20260901081532 75 195 0.0 0.0 0.00 0.00 0.00 92 1019.1
20260901081015 75 195 0.0 0.0 0.00 0.00 0.00 91 1019.1
20260901080515 75 195 0.0 0.0 0.00 0.00 0.00 91 1019.0
20260901080014 75 195 0.0 0.0 0.00 0.00 0.00 91 1019.0
20260901075507 75 195 0.0 0.0 0.00 0.00 0.00 91 1019.0
20260901075010 75 195 0.0 0.0 0.00 0.00 0.00 91 1018.9
20260901074514 75 195 0.0 0.0 0.00 0.00 0.00 91 1018.9
20260901074009 76 195 0.0 0.0 0.00 0.00 0.00 91 1018.9
20260901073508 76 195 0.0 0.0 0.00 0.00 0.00 91 1018.9
20260901073026 76 195 0.0 0.0 0.00 0.00 0.00 91 1019.0
20260901072511 76 195 0.0 0.0 0.00 0.00 0.00 91 1019.0
20260901072013 76 195 0.0 0.0 0.00 0.00 0.00 91 1019.0
20260901071528 76 195 0.0 0.0 0.00 0.00 0.00 91 1019.1
20260901071012 76 195 0.0 0.0 0.00 0.00 0.00 91 1019.1
20260901070514 76 195 0.0 0.0 0.00 0.00 0.00 91 1019.1
20260901070030 76 195 0.0 0.0 0.00 0.00 0.00 91 1019.1
20260901065515 76 195 0.0 0.0 0.00 0.00 0.00 91 1019.1
20260901065009 76 195 0.0 0.0 0.00 0.00 0.00 91 1019.0
20260901064519 76 195 0.0 0.0 0.00 0.00 0.00 91 1019.1
20260901064008 76 195 0.0 0.0 0.00 0.00 0.00 91 1019.1
20260901063508 76 195 0.0 0.0 0.00 0.00 0.00 91 1019.1
20260901063025 76 195 0.0 0.0 0.00 0.00 0.00 91 1019.2
20260901062508 76 195 0.0 0.0 0.00 0.00 0.00 91 1019.2
20260901062013 76 195 0.0 0.0 0.00 0.00 0.00 90 1019.3
20260901061529 76 195 0.0 0.0 0.00 0.00 0.00 90 1019.3
20260901061018 76 195 0.0 0.0 0.00 0.00 0.00 90 1019.2
20260901060515 76 195 0.0 0.0 0.00 0.00 0.00 90 1019.3
20260901060030 76 195 0.0 0.0 0.00 0.00 0.00 90 1019.3
20260901055517 76 195 0.0 0.0 0.00 0.00 0.00 90 1019.3
20260901055016 76 195 0.0 0.0 0.00 0.00 0.00 90 1019.4
20260901054534 76 195 0.0 0.0 0.00 0.00 0.00 90 1019.4
20260901054018 76 195 0.0 0.0 0.00 0.00 0.00 89 1019.4
20260901053506 76 195 0.0 0.0 0.00 0.00 0.00 89 1019.5
20260901053018 76 195 0.0 0.0 0.00 0.00 0.00 89 1019.5
20260901052507 76 195 0.0 0.0 0.00 0.00 0.00 89 1019.5
20260901052011 76 195 0.0 0.0 0.00 0.00 0.00 89 1019.6
20260901051527 76 195 0.0 0.0 0.00 0.00 0.00 89 1019.5
20260901051011 76 195 0.0 2.0 0.00 0.00 0.00 89 1019.5
20260901050512 76 195 0.0 2.0 0.00 0.00 0.00 88 1019.6
20260901050029 76 195 0.0 0.0 0.00 0.00 0.00 88 1019.5
20260901045511 76 195 0.0 0.0 0.00 0.00 0.00 88 1019.7
20260901045013 76 195 0.0 0.0 0.00 0.00 0.00 87 1019.6
20260901044546 76 195 0.0 0.0 0.00 0.00 0.00 87 1019.6
20260901044018 77 195 0.0 0.0 0.00 0.00 0.00 86 1019.5
20260901043518 77 195 0.0 0.0 0.00 0.00 0.00 86 1019.4
20260901043034 77 198 0.0 0.0 0.00 0.00 0.00 85 1019.4
20260901042505 77 197 0.0 0.0 0.00 0.00 0.00 85 1019.2
20260901042007 77 197 0.0 0.0 0.00 0.00 0.00 85 1019.3
20260901041527 77 195 0.0 0.0 0.00 0.00 0.00 84 1019.3
20260901041009 77 195 0.0 1.0 0.00 0.00 0.00 84 1019.3
20260901040513 77 195 0.0 2.0 0.00 0.00 0.00 83 1019.3
20260901040028 77 195 0.0 2.0 0.00 0.00 0.00 83 1019.2
20260901035512 77 195 0.0 2.0 0.00 0.00 0.00 84 1019.1
20260901035012 76 207 0.0 2.0 0.00 0.00 0.00 85 1019.2
20260901034535 76 188 0.0 0.0 0.00 0.00 0.00 87 1019.2
20260901034014 76 188 0.0 0.0 0.00 0.00 0.00 87 1019.2
20260901033515 76 188 0.0 0.0 0.00 0.00 0.00 87 1019.1
20260901033049 76 188 0.0 0.0 0.00 0.00 0.00 87 1019.0
20260901032517 76 188 0.0 0.0 0.00 0.00 0.00 87 1019.0
20260901032017 76 188 0.0 0.0 0.00 0.00 0.00 87 1019.1
20260901031521 76 188 0.0 0.0 0.00 0.00 0.00 87 1019.2
20260901031007 76 188 0.0 0.0 0.00 0.00 0.00 86 1019.1
20260901030511 76 188 0.0 0.0 0.00 0.00 0.00 86 1019.1
20260901030034 77 188 0.0 0.0 0.00 0.00 0.00 85 1019.1
20260901025510 77 188 0.0 0.0 0.00 0.00 0.00 85 1019.1
20260901025012 77 188 0.0 0.0 0.00 0.00 0.00 85 1019.2
20260901024531 77 188 0.0 0.0 0.00 0.00 0.00 85 1019.2
20260901024017 77 188 0.0 0.0 0.00 0.00 0.00 85 1019.2
20260901023513 77 188 0.0 0.0 0.00 0.00 0.00 84 1019.2
20260901023033 77 188 0.0 0.0 0.00 0.00 0.00 83 1019.2
20260901022517 77 188 0.0 0.0 0.00 0.00 0.00 83 1019.1
20260901022017 77 188 0.0 0.0 0.00 0.00 0.00 83 1019.0
20260901021544 78 188 0.0 0.0 0.00 0.00 0.00 83 1019.1
20260901021017 78 188 0.0 0.0 0.00 0.00 0.00 82 1019.2
20260901020519 78 188 0.0 0.0 0.00 0.00 0.00 82 1019.2
20260901020031 78 188 0.0 0.0 0.00 0.00 0.00 81 1019.2
20260901015511 78 188 0.0 0.0 0.00 0.00 0.00 81 1019.0
20260901015013 79 188 0.0 0.0 0.00 0.00 0.00 81 1019.1
20260901014527 79 188 0.0 0.0 0.00 0.00 0.00 80 1018.9
20260901014015 79 188 0.0 0.0 0.00 0.00 0.00 81 1018.9
20260901013513 79 188 0.0 0.0 0.00 0.00 0.00 80 1019.0
20260901013041 79 188 0.0 0.0 0.00 0.00 0.00 80 1019.1
20260901012513 79 188 0.0 0.0 0.00 0.00 0.00 80 1018.9
20260901012017 79 188 0.0 0.0 0.00 0.00 0.00 80 1018.7
20260901011547 79 188 0.0 0.0 0.00 0.00 0.00 80 1018.5
20260901011016 79 188 0.0 0.0 0.00 0.00 0.00 80 1018.5
20260901010517 80 188 0.0 0.0 0.00 0.00 0.00 79 1018.5
20260901010032 80 188 0.0 0.0 0.00 0.00 0.00 78 1018.4
20260901005517 80 188 0.0 0.0 0.00 0.00 0.00 77 1018.4
20260901005012 80 188 0.0 0.0 0.00 0.00 0.00 77 1018.4
20260901004527 80 188 0.0 0.0 0.00 0.00 0.00 75 1018.3
20260901004012 80 188 0.0 0.0 0.00 0.00 0.00 76 1018.2
20260901003512 80 188 0.0 0.0 0.00 0.00 0.00 77 1018.3
20260901003039 81 188 0.0 0.0 0.00 0.00 0.00 77 1018.2
20260901002517 81 188 0.0 0.0 0.00 0.00 0.00 76 1018.3
20260901002014 81 188 0.0 0.0 0.00 0.00 0.00 76 1018.2
20260901001533 81 188 0.0 0.0 0.00 0.00 0.00 76 1018.1
20260901001016 81 188 0.0 0.0 0.00 0.00 0.00 75 1018.2
20260901000518 81 188 0.0 0.0 0.00 0.00 0.00 74 1018.2
20260901000035 82 188 0.0 0.0 0.00 0.00 0.00 74 1018.1
20260831235517 82 188 0.0 0.0 0.00 0.00 0.00 73 1018.0
20260831235018 82 188 0.0 0.0 0.00 0.00 0.00 72 1018.0
20260831234532 83 188 0.0 0.0 0.00 0.00 0.00 73 1018.1
20260831234018 83 188 0.0 0.0 0.00 0.00 0.00 72 1018.1
20260831233511 83 188 0.0 0.0 0.00 0.00 0.00 72 1018.0
20260831233030 83 188 0.0 0.0 0.00 0.00 0.00 71 1018.0
20260831232515 84 188 0.0 0.0 0.00 0.00 0.00 69 1017.9
20260831232002 84 188 0.0 0.0 0.00 0.00 0.00 70 1017.9
20260831231508 84 188 0.0 0.0 0.00 0.00 0.00 70 1018.0
20260831231003 85 188 0.0 0.0 0.00 0.00 0.00 70 1017.9
20260831230503 85 188 0.0 0.0 0.00 0.00 0.00 68 1017.9
20260831230017 86 188 0.0 0.0 0.00 0.00 0.00 66 1018.0
20260831225507 86 188 0.0 0.0 0.00 0.00 0.00 61 1017.9
20260831225010 86 188 0.0 0.0 0.00 0.00 0.00 62 1017.9
20260831224524 86 188 0.0 0.0 0.00 0.00 0.00 63 1017.9
20260831224012 87 188 0.0 0.0 0.00 0.00 0.00 62 1017.9
20260831223511 87 188 0.0 2.0 0.00 0.00 0.00 59 1017.8
20260831223034 88 188 0.0 2.0 0.00 0.00 0.00 58 1017.8
20260831222516 89 201 0.0 2.0 0.00 0.00 0.00 57 1017.8
20260831222015 89 201 0.0 2.0 0.00 0.00 0.00 55 1017.9
20260831221529 90 201 0.0 2.0 0.00 0.00 0.00 53 1017.8
20260831221003 90 201 0.0 2.0 0.00 0.00 0.00 55 1017.8
20260831220503 90 207 0.0 2.0 0.00 0.00 0.00 55 1017.9
20260831220020 90 227 0.0 2.0 0.00 0.00 0.00 53 1017.9
20260831215509 90 189 0.0 2.0 0.00 0.00 0.00 53 1017.9
20260831215008 89 209 0.0 2.0 0.00 0.00 0.00 53 1018.0
20260831214518 89 194 0.0 2.0 0.00 0.00 0.00 54 1018.1
20260831214009 89 194 0.0 1.0 0.00 0.00 0.00 54 1018.1
20260831213513 90 194 0.0 2.0 0.00 0.00 0.00 54 1018.1
20260831213028 90 177 0.0 2.0 0.00 0.00 0.00 53 1018.2
20260831212512 90 213 0.0 2.0 0.00 0.00 0.00 54 1018.2
20260831212014 90 203 0.0 2.0 0.00 0.00 0.00 52 1018.2
20260831211536 90 220 0.0 2.0 0.00 0.00 0.00 52 1018.2
20260831211016 90 194 0.0 2.0 0.00 0.00 0.00 54 1018.2
20260831210518 90 194 0.0 2.0 0.00 0.00 0.00 51 1018.2
20260831210010 92 146 0.0 2.0 0.00 0.00 0.00 51 1018.3
20260831205506 92 183 0.0 2.0 0.00 0.00 0.00 51 1018.3
20260831205008 91 190 0.0 2.0 0.00 0.00 0.00 51 1018.3
20260831204516 91 190 0.0 2.0 0.00 0.00 0.00 51 1018.3
20260831204010 91 178 0.0 2.0 0.00 0.00 0.00 53 1018.4
20260831203510 91 208 0.0 2.0 0.00 0.00 0.00 52 1018.4
20260831203027 91 183 0.0 3.0 0.00 0.00 0.00 52 1018.5
20260831202514 91 183 0.0 3.0 0.00 0.00 0.00 51 1018.5
20260831202014 90 300 0.0 3.0 0.00 0.00 0.00 52 1018.5
20260831201530 90 214 1.0 3.0 0.00 0.00 0.00 55 1018.5
20260831201014 90 290 0.0 2.0 0.00 0.00 0.00 53 1018.6
20260831200515 90 210 0.0 2.0 0.00 0.00 0.00 55 1018.5
20260831200029 90 202 0.0 2.0 0.00 0.00 0.00 52 1018.5
20260831195514 91 198 0.0 2.0 0.00 0.00 0.00 51 1018.6
20260831195018 91 81 0.0 3.0 0.00 0.00 0.00 53 1018.7
20260831194520 91 302 0.0 3.0 0.00 0.00 0.00 52 1018.8
20260831194007 90 207 0.0 3.0 0.00 0.00 0.00 56 1018.8
20260831193509 91 284 0.0 2.0 0.00 0.00 0.00 55 1018.8
20260831193019 91 186 0.0 2.0 0.00 0.00 0.00 51 1019.0
20260831192511 91 253 0.0 2.0 0.00 0.00 0.00 52 1019.0
20260831192015 91 232 0.0 2.0 0.00 0.00 0.00 51 1019.0
20260831191528 91 275 0.0 2.0 0.00 0.00 0.00 52 1019.1
20260831191013 92 322 0.0 2.0 0.00 0.00 0.00 50 1019.2
20260831190515 93 199 0.0 2.0 0.00 0.00 0.00 48 1019.3
20260831190031 94 100 0.0 2.0 0.00 0.00 0.00 49 1019.3
20260831185515 94 71 0.0 2.0 0.00 0.00 0.00 47 1019.4
20260831185016 94 202 0.0 2.0 0.00 0.00 0.00 45 1019.4
20260831184534 94 182 0.0 2.0 0.00 0.00 0.00 47 1019.6
20260831184014 93 188 0.0 3.0 0.00 0.00 0.00 48 1019.5
20260831183507 93 259 1.0 3.0 0.00 0.00 0.00 50 1019.6
20260831183018 93 201 0.0 2.0 0.00 0.00 0.00 50 1019.6
20260831182509 92 176 0.0 2.0 0.00 0.00 0.00 51 1019.7
20260831182012 92 219 0.0 2.0 0.00 0.00 0.00 52 1019.7
20260831181524 91 135 0.0 2.0 0.00 0.00 0.00 53 1019.8
20260831181011 91 232 0.0 2.0 0.00 0.00 0.00 58 1019.8
20260831180513 90 207 0.0 2.0 0.00 0.00 0.00 56 1019.8
20260831180027 89 224 0.0 2.0 0.00 0.00 0.00 56 1019.9
20260831175512 89 200 0.0 2.0 0.00 0.00 0.00 58 1020.0
20260831175016 89 200 0.0 3.0 0.00 0.00 0.00 59 1020.0
20260831174531 88 223 1.0 3.0 0.00 0.00 0.00 62 1019.9
20260831174016 88 323 0.0 3.0 0.00 0.00 0.00 62 1020.0
20260831173516 87 214 1.0 4.0 0.00 0.00 0.00 62 1020.0
20260831173034 87 196 1.0 4.0 0.00 0.00 0.00 62 1020.1
20260831172517 87 12 0.0 2.0 0.00 0.00 0.00 62 1020.1
20260831172009 87 282 0.0 2.0 0.00 0.00 0.00 64 1020.0
20260831171521 87 180 0.0 2.0 0.00 0.00 0.00 66 1020.0
20260831171010 86 198 0.0 2.0 0.00 0.00 0.00 67 1020.1
20260831170513 86 252 0.0 2.0 0.00 0.00 0.00 66 1020.1
20260831170027 86 5 0.0 1.0 0.00 0.00 0.00 66 1020.2
20260831165513 86 318 0.0 2.0 0.00 0.00 0.00 70 1020.2
20260831165013 86 226 0.0 2.0 0.00 0.00 0.00 66 1020.2
20260831164532 86 201 1.0 2.0 0.00 0.00 0.00 68 1020.2
20260831164015 86 217 0.0 2.0 0.00 0.00 0.00 70 1020.3
20260831163516 86 352 1.0 2.0 0.00 0.00 0.00 67 1020.3
20260831163032 85 200 0.0 2.0 0.00 0.00 0.00 68 1020.4
20260831162520 85 229 1.0 2.0 0.00 0.00 0.00 69 1020.4
20260831162017 85 250 0.0 2.0 0.00 0.00 0.00 67 1020.5
20260831161538 85 333 0.0 3.0 0.00 0.00 0.00 70 1020.4
20260831161008 85 300 1.0 3.0 0.00 0.00 0.00 69 1020.5
20260831160511 85 95 0.0 1.0 0.00 0.00 0.00 69 1020.6
20260831160024 85 100 0.0 3.0 0.00 0.00 0.00 70 1020.6
20260831155514 84 286 1.0 3.0 0.00 0.00 0.00 70 1020.6
20260831155016 84 100 0.0 2.0 0.00 0.00 0.00 73 1020.7
20260831154555 83 25 0.0 2.0 0.00 0.00 0.00 73 1020.8
20260831154015 83 333 0.0 3.0 0.00 0.00 0.00 71 1020.8
20260831153520 83 279 0.0 3.0 0.00 0.00 0.00 74 1020.9
20260831153033 83 352 0.0 3.0 0.00 0.00 0.00 72 1021.1
20260831152517 83 360 0.0 2.0 0.00 0.00 0.00 74 1021.0
20260831152016 83 360 1.0 2.0 0.00 0.00 0.00 74 1021.0
20260831151532 83 13 0.0 2.0 0.00 0.00 0.00 74 1021.0
20260831151021 83 321 0.0 2.0 0.00 0.00 0.00 74 1021.0
20260831150519 82 10 1.0 2.0 0.00 0.00 0.00 75 1020.9
20260831150022 82 242 0.0 3.0 0.00 0.00 0.00 75 1020.9
20260831145511 82 26 1.0 3.0 0.00 0.00 0.00 76 1020.9
20260831145013 81 273 0.0 3.0 0.00 0.00 0.00 77 1020.9
20260831144525 81 219 0.0 3.0 0.00 0.00 0.00 76 1020.8
20260831144013 81 284 0.0 2.0 0.00 0.00 0.00 76 1020.9
20260831143514 81 90 0.0 2.0 0.00 0.00 0.00 76 1020.9
20260831143034 81 46 0.0 1.0 0.00 0.00 0.00 79 1020.8
20260831142517 80 323 0.0 1.0 0.00 0.00 0.00 80 1020.8
20260831142004 80 5 0.0 2.0 0.00 0.00 0.00 80 1020.7
20260831141507 80 352 0.0 3.0 0.00 0.00 0.00 81 1020.7
20260831141004 80 17 0.0 3.0 0.00 0.00 0.00 81 1020.6
20260831140504 79 28 0.0 2.0 0.00 0.00 0.00 84 1020.6
20260831140016 79 277 0.0 2.0 0.00 0.00 0.00 84 1020.6
20260831135504 78 281 0.0 2.0 0.00 0.00 0.00 86 1020.6
20260831135006 78 350 0.0 2.0 0.00 0.00 0.00 87 1020.6
20260831134512 78 331 0.0 1.0 0.00 0.00 0.00 88 1020.6
20260831134003 78 331 0.0 2.0 0.00 0.00 0.00 88 1020.6
20260831133505 77 5 0.0 2.0 0.00 0.00 0.00 89 1020.6
20260831133007 77 9 0.0 1.0 0.00 0.00 0.00 89 1020.6
20260831132504 76 352 0.0 1.0 0.00 0.00 0.00 90 1020.6
20260831132003 76 263 0.0 0.0 0.00 0.00 0.00 91 1020.6